Weather History for Nogales, AZ

Change the Weather History Date:

Friday, November 30, 2012

  Actual Average (KTUS) Record (KTUS)
Temperature  
Mean Temperature 56 °F 54 °F  
Max Temperature 75 °F 68 °F 85 °F (1999)
Min Temperature 37 °F 41 °F 23 °F (2010)
Degree Days  
Heating Degree Days 9 11  
Month to date heating degree days 184  
Since 1 July heating degree days 206  
Cooling Degree Days 0 0  
Month to date cooling degree days 27  
Year to date cooling degree days 3146  
Growing Degree Days 6 (Base 50)    
Moisture  
Dew Point 29 °F    
Average Humidity 42    
Maximum Humidity 65    
Minimum Humidity 18    
Precipitation  
Precipitation 0.00 in 0.02 in 0.74 in (1982)
Month to date precipitation 0.57  
Year to date precipitation 10.66  
Sea Level Pressure  
Sea Level Pressure 30.07 in    
Wind  
Wind Speed 2 mph (NE)    
Max Wind Speed 8 mph    
Max Gust Speed -    
Visibility 10 miles    
Events      
T = Trace of Precipitation, MM = Missing Value Source: NWS Daily Summary

Daily Weather History Graph

Daily Weather History Graph

Search for Another Location

Airport:

Trip Planner

Search our weather history database for the weather conditions in past years. The results will help you decide how hot, cold, wet, or windy it might be!

Date:

Astronomy

Nov. 30, 2012 Rise Set
Actual Time 7:04 AM MST 5:20 PM MST
Civil Twilight 6:37 AM MST 5:46 PM MST
Nautical Twilight 6:07 AM MST 6:16 PM MST
Astronomical Twilight 5:38 AM MST 6:45 PM MST
Moon 7:17 PM MST (11/30) 8:39 AM MST (11/30)
Length of Visible Light 11h 08m
Length of Day
10h 15m
Waning Gibbous, 96% of the Moon is Illuminated
Nov 30
Waning Gibbous
Dec 6
Last Quarter
Dec 13
New
Dec 19
First Quarter
Dec 28
Full

Hourly Weather History & Observations

Time (MST) Temp. Windchill Dew Point Humidity Pressure Visibility Wind Dir Wind Speed Gust Speed Precip Events Conditions
12:54 AM 44.1 °F - 27.0 °F 51% 30.10 in 10.0 mi Calm Calm - N/A   Clear
1:54 AM 43.0 °F - 27.0 °F 53% 30.08 in 10.0 mi Calm Calm - N/A   Clear
2:54 AM 42.1 °F - 27.0 °F 55% 30.07 in 10.0 mi Calm Calm - N/A   Clear
3:54 AM 41.0 °F 37.1 °F 28.0 °F 60% 30.07 in 10.0 mi East 5.8 mph - N/A   Clear
4:54 AM 39.0 °F - 28.0 °F 65% 30.08 in 10.0 mi Calm Calm - N/A   Clear
5:54 AM 37.9 °F - 27.0 °F 65% 30.10 in 10.0 mi Calm Calm - N/A   Clear
6:54 AM 37.9 °F 34.4 °F 27.0 °F 65% 30.12 in 10.0 mi NE 4.6 mph - N/A   Clear
7:54 AM 42.1 °F - 28.9 °F 60% 30.13 in 10.0 mi Calm Calm - N/A   Clear
8:54 AM 51.1 °F - 28.9 °F 43% 30.12 in 10.0 mi Calm Calm - N/A   Clear
9:54 AM 57.9 °F - 30.0 °F 35% 30.11 in 10.0 mi Calm Calm - N/A   Clear
10:54 AM 64.9 °F - 30.9 °F 28% 30.10 in 10.0 mi Variable 3.5 mph - N/A   Clear
11:54 AM 70.0 °F - 30.0 °F 23% 30.06 in 10.0 mi Calm Calm - N/A   Clear
12:54 PM 73.0 °F - 28.0 °F 19% 30.02 in 10.0 mi North - - N/A   Clear
1:54 PM 73.9 °F - 28.0 °F 18% 29.99 in 10.0 mi Calm Calm - N/A   Clear
2:54 PM 75.9 °F - 28.9 °F 18% 29.98 in 10.0 mi North - - N/A   Clear
3:54 PM 75.0 °F - 30.0 °F 19% 29.98 in 10.0 mi NW 5.8 mph - N/A   Clear
4:54 PM 71.1 °F - 30.9 °F 23% 30.00 in 10.0 mi NW 6.9 mph - N/A   Clear
5:54 PM 64.0 °F - 30.9 °F 29% 30.03 in 10.0 mi NNW 3.5 mph - N/A   Clear
6:54 PM 55.0 °F - 30.0 °F 38% 30.06 in 10.0 mi East 4.6 mph - N/A   Clear
7:54 PM 53.1 °F - 30.0 °F 41% 30.07 in 10.0 mi Calm Calm - N/A   Clear
8:54 PM 50.0 °F - 30.2 °F 47% 30.15 in 10.0 mi East 5.8 mph - N/A   Clear
9:54 PM 48.9 °F - 30.9 °F 50% 30.06 in 10.0 mi East 8.1 mph - N/A   Clear
10:54 PM 46.9 °F - 30.9 °F 54% 30.07 in 10.0 mi East 4.6 mph - N/A   Clear
11:54 PM 44.1 °F 40.1 °F 30.0 °F 58% 30.06 in 10.0 mi ENE 6.9 mph - N/A   Clear